Location: Carnières
(50.1682°N, 3.3474°E)
Time: 03:52:06
(UTC+00:00)

Cosmos 1190 Rocket - Pass Details

Date: 23 May 2024
Orbit: 754 x 778 km, 74.1° (Epoch: 21 June)

Event Time Altitude Azimuth Distance (km) Brightness Sun altitude
Exits shadow 00:51:14 31° 209° (SSW) 1,339 4.7 -17.6°
Maximum altitude 00:53:51 82° 294° (WNW) 788 4.0 -17.5°
Drops below altitude 10° 00:59:11 10° 23° (NNE) 2,338 7.8 -17.2°
Sets 01:01:35 0° 24° (NNE) 3,272 9.0 -17.1°
